Location: Barrio Las Umbrías
(40.4173°N, 4.8685°W)
Time: 11:59:07
(UTC+00:00)

Atlas Centaur 2 - Pass Details

Date: 17 August 2022
Orbit: 459 x 1302 km, 30.4° (Epoch: 27 September)

Event Time Altitude Azimuth Distance (km) Brightness Sun altitude
Rises 19:32:46 0° 220° (SW) 4,239 6.1 -4.1°
Reaches altitude 10° 19:36:20 10° 208° (SSW) 3,302 5.4 -4.8°
Maximum altitude 19:42:46 24° 158° (SSE) 2,365 4.1 -5.9°
Drops below altitude 10° 19:48:57 10° 108° (ESE) 3,166 4.5 -7.0°
Enters shadow 19:49:42 - 105° (ESE) 3,345 4.6 -7.1°
